Lobo

Go HERE for most recent data if this page is not up to date.

Jump to table bottom
Date/Time Temp deg F RH % 24 Hr Snow (in) Snow Depth (in) H2O (in)
05/26 05:00 29.2 84 "NAN" 40.3 0.00
05/26 04:00 29.6 99 "NAN" 40.1 0.00
05/26 03:00 30.1 100 "NAN" 40.4 0.02
05/26 02:00 31.1 88 "NAN" 40.4 0.01
05/26 01:00 31.9 97 "NAN" 40.0 0.06
05/26 00:00 32.9 85 "NAN" 39.5 0.00
05/25 23:00 32.9 81 "NAN" 39.2 0.05
05/25 22:00 34.9 79 "NAN" 39.0 0.00
05/25 21:00 34.9 84 "NAN" 39.3 0.01
05/25 20:00 35.7 74 "NAN" 39.4 0.00
05/25 19:00 37.3 69 "NAN" 39.4 0.00
05/25 18:00 35.6 73 "NAN" 39.7 0.02
05/25 17:00 36.2 84 "NAN" 39.6 0.00
05/25 16:00 36.5 85 "NAN" 39.6 0.01
05/25 15:00 33.7 76 "NAN" 39.7 0.03
05/25 14:00 38.1 76 "NAN" 40.1 0.00
05/25 13:00 38.1 59 "NAN" 40.4 0.00
05/25 12:00 41.7 61 "NAN" 40.3 0.00
05/25 11:00 41.4 43 "NAN" 40.5 0.00
05/25 10:00 39.3 47 "NAN" 40.7 0.00
05/25 09:00 36.0 61 "NAN" 40.7 0.00
05/25 08:00 32.7 70 "NAN" 40.6 0.00
05/25 07:00 31.4 71 "NAN" 40.7 0.00
05/25 06:00 30.8 71 "NAN" 40.7 0.00
05/25 05:00 30.8 77 "NAN" 40.8 0.01
05/25 04:00 32.3 84 "NAN" 40.6 0.00
05/25 03:00 32.2 71 "NAN" 40.4 0.00
05/25 02:00 31.5 76 "NAN" 40.5 0.01
05/25 01:00 33.5 71 "NAN" 40.5 0.00
05/25 00:00 33.6 69 "NAN" 40.6 0.00
.